Location: C�mpuri de-Sus
(45.9500°N, 22.5500°E)
Time: 10:22:55
(UTC+00:00)

Cosmos 2278 Rocket - Pass Details

Date: 02 June 2022
Orbit: 840 x 846 km, 71.0° (Epoch: 01 July)

Event Time Altitude Azimuth Distance (km) Brightness Sun altitude
Rises 20:13:21 0° 339° (NNW) 3,418 7.1 -15.3°
Reaches altitude 10° 20:16:13 10° 352° (N) 2,478 5.7 -15.5°
Maximum altitude 20:21:00 27° 49° (NE) 1,574 3.7 -16.0°
Enters shadow 20:25:09 13° 103° (ESE) 2,285 4.1 -16.3°
